Regional Weather Roundup
Issued by NWS Bismarck, ND

Home | Current Version | Previous Version | Text Only | Print | Product List | Glossary On
Versions: 1 2 3 4 5 6 7 8 9 10 11 12 13 14 15 16 17 18 19 20 21 22 23 24 25 26 27 28 29 30 31 32 33 34 35 36 37 38 39 40 41 42 43 44 45 46 47 48 49 50
000
ASUS43 KBIS 121159
RWRBIS

NWR BROADCAST TEXT
NATIONAL WEATHER SERVICE BISMARCK ND
700 AM CDT SAT JUL 12 2014

NOTE: "FAIR" INDICATES FEW OR NO CLOUDS BELOW 12,000 FEET WITH NO
SIGNIFICANT WEATHER AND/OR OBSTRUCTIONS TO VISIBILITY.


CITY           SKY/WX    TMP DP  RH WIND       PRES   REMARKS
WILLISTON      CLOUDY    56  52  86 CALM      30.13R
MINOT          PTCLDY    56  52  86 SW7       30.08S
MINOT AFB      NOT AVBL
BISMARCK       LGT RAIN  63  59  87 W6        30.14R
DICKINSON      NOT AVBL
GARRISON         N/A     57  54  89 CALM      30.11R
HETTINGER ARPT LGT RAIN  60  58  92 E10       30.13F
JAMESTOWN      MOCLDY    61  57  87 CALM      30.07R
CARRINGTON     FAIR      57  57 100 SW6       30.09S
HAZEN          CLOUDY    59  57  94 S3        30.13R
MANDAN         PTSUNNY   61  59  94 SW8       30.15R
$$

CITY           SKY/WX    TMP DP  RH WIND       PRES   REMARKS
GRAND FORKS    PTSUNNY   58  55  90 W3        30.02S
GRAND FORKS AF NOT AVBL
DEVILS LAKE    PTCLDY    59  55  88 W5        30.06R
FARGO          MOSUNNY   62  58  86 NW5       30.04R
GRAFTON        FAIR      57  55  94 W7        30.02S
GWINNER        SUNNY     64  61  88 N6        30.06S
$$

CITY           SKY/WX    TMP DP  RH WIND       PRES   REMARKS
ABERDEEN       CLOUDY    64  58  80 NE5       30.04S
MOBRIDGE       LGT RAIN  64  62  93 SW3       30.11R
BUFFALO          N/A     60  58  92 SE7       30.09S
RAPID CITY     PTCLDY    61  57  87 N8        30.14R
GLASGOW        PTCLDY    59  54  83 SE5       30.13S
SIDNEY         PTCLDY    57  52  82 CALM      30.15S
WOLF POINT     CLOUDY    55  51  86 CALM      30.14R
GLENDIVE       MOCLDY    63  52  67 NE3       30.15R
MILES CITY     MOCLDY    62  58  86 NE6       30.13R
BAKER          MOCLDY    59  58  96 E5        30.14R
$$

CITY           SKY/WX    TMP DP  RH WIND       PRES   REMARKS
GREAT FALLS    CLEAR     52  50  93 SW5       30.20R
$$



USA.gov is the U.S. government's official web portal to all federal, state and local government web resources and services.